TimeEDT,TemperatureF,Dew PointF,Humidity,Sea Level PressureIn,VisibilityMPH,Wind Direction,Wind SpeedMPH,Gust SpeedMPH,PrecipitationIn,Events,Conditions,WindDirDegrees,DateUTC
12:15 AM,68.0,64.4,88,30.07,10.0,ENE,4.6,-,N/A,,Overcast,70,2013-07-03 04:15:00
12:35 AM,66.2,64.4,94,30.06,10.0,NE,3.5,-,N/A,,Mostly Cloudy,40,2013-07-03 04:35:00
12:56 AM,66.2,64.4,94,30.06,7.0,NE,3.5,-,N/A,,Mostly Cloudy,50,2013-07-03 04:56:00
1:16 AM,66.2,64.4,94,30.06,7.0,Calm,Calm,-,N/A,,Mostly Cloudy,0,2013-07-03 05:16:00
1:36 AM,66.2,64.4,94,30.06,7.0,Calm,Calm,-,N/A,,Scattered Clouds,0,2013-07-03 05:36:00
1:56 AM,66.2,64.4,94,30.06,7.0,ENE,3.5,-,N/A,,Scattered Clouds,70,2013-07-03 05:56:00
2:16 AM,66.2,64.4,94,30.05,7.0,NE,3.5,-,N/A,,Scattered Clouds,50,2013-07-03 06:16:00
2:36 AM,66.2,64.4,94,30.05,7.0,Calm,Calm,-,N/A,,Scattered Clouds,0,2013-07-03 06:36:00
2:56 AM,66.2,62.6,88,30.04,7.0,Calm,Calm,-,N/A,,Clear,0,2013-07-03 06:56:00
3:11 AM,64.4,62.6,94,30.04,5.0,Calm,Calm,-,N/A,,Scattered Clouds,0,2013-07-03 07:11:00
3:31 AM,64.4,62.6,94,30.03,5.0,ENE,3.5,-,N/A,,Scattered Clouds,60,2013-07-03 07:31:00
3:52 AM,64.4,62.6,94,30.03,5.0,ENE,3.5,-,N/A,,Scattered Clouds,70,2013-07-03 07:52:00
4:12 AM,64.4,62.6,94,30.03,5.0,Calm,Calm,-,N/A,,Overcast,0,2013-07-03 08:12:00
4:32 AM,64.4,62.6,94,30.03,5.0,NE,3.5,-,N/A,,Overcast,50,2013-07-03 08:32:00
4:52 AM,64.4,62.6,94,30.03,5.0,NE,3.5,-,N/A,,Overcast,40,2013-07-03 08:52:00
5:12 AM,64.4,62.6,94,30.03,4.0,Calm,Calm,-,N/A,,Overcast,0,2013-07-03 09:12:00
5:32 AM,64.4,62.6,94,30.05,3.0,Calm,Calm,-,N/A,,Mostly Cloudy,0,2013-07-03 09:32:00
5:52 AM,64.4,64.4,100,30.05,3.0,Calm,Calm,-,N/A,,Overcast,0,2013-07-03 09:52:00
6:12 AM,66.2,64.4,94,30.05,4.0,Calm,Calm,-,N/A,,Overcast,0,2013-07-03 10:12:00
6:32 AM,66.2,64.4,94,30.05,2.5,Calm,Calm,-,N/A,,Overcast,0,2013-07-03 10:32:00
6:53 AM,66.2,64.4,94,30.06,2.5,Calm,Calm,-,N/A,,Overcast,0,2013-07-03 10:53:00
7:13 AM,66.2,64.4,94,30.07,2.5,Calm,Calm,-,N/A,,Overcast,0,2013-07-03 11:13:00
7:33 AM,66.2,64.4,94,30.07,4.0,Calm,Calm,-,N/A,,Overcast,0,2013-07-03 11:33:00
7:53 AM,66.2,66.2,100,30.07,4.0,Calm,Calm,-,N/A,,Overcast,0,2013-07-03 11:53:00
8:13 AM,68.0,66.2,94,30.07,4.0,Calm,Calm,-,N/A,,Overcast,0,2013-07-03 12:13:00
8:33 AM,69.8,66.2,88,30.08,4.0,Calm,Calm,-,N/A,,Overcast,0,2013-07-03 12:33:00
8:53 AM,69.8,68.0,94,30.09,4.0,East,3.5,-,N/A,,Overcast,90,2013-07-03 12:53:00
9:13 AM,71.6,69.8,94,30.09,5.0,East,3.5,-,N/A,,Overcast,100,2013-07-03 13:13:00
9:33 AM,73.4,69.8,88,30.09,5.0,ESE,5.8,-,N/A,,Overcast,120,2013-07-03 13:33:00
9:53 AM,73.4,69.8,88,30.09,5.0,SSE,5.8,-,N/A,,Overcast,150,2013-07-03 13:53:00
10:14 AM,75.2,69.8,83,30.09,5.0,SSE,4.6,-,N/A,,Haze,160,2013-07-03 14:14:00
10:34 AM,75.2,69.8,83,30.09,7.0,South,5.8,-,N/A,,Scattered Clouds,170,2013-07-03 14:34:00
10:54 AM,75.2,69.8,83,30.10,7.0,SSW,6.9,-,N/A,,Scattered Clouds,200,2013-07-03 14:54:00
11:14 AM,75.2,69.8,83,30.10,7.0,SSW,4.6,-,N/A,,Scattered Clouds,210,2013-07-03 15:14:00
11:34 AM,78.8,69.8,74,30.10,10.0,SSW,4.6,-,N/A,,Clear,210,2013-07-03 15:34:00
11:54 AM,78.8,69.8,74,30.10,10.0,SSW,4.6,-,N/A,,Scattered Clouds,210,2013-07-03 15:54:00
12:14 PM,80.6,68.0,65,30.10,10.0,SW,3.5,-,N/A,,Scattered Clouds,230,2013-07-03 16:14:00
12:34 PM,80.6,68.0,65,30.10,10.0,SW,4.6,-,N/A,,Scattered Clouds,230,2013-07-03 16:34:00
12:54 PM,80.6,68.0,65,30.09,10.0,SSW,8.1,-,N/A,,Scattered Clouds,200,2013-07-03 16:54:00
1:15 PM,82.4,66.2,58,30.09,10.0,SW,8.1,-,N/A,,Scattered Clouds,230,2013-07-03 17:15:00
1:35 PM,80.6,69.8,70,30.09,10.0,SSE,5.8,-,N/A,,Scattered Clouds,160,2013-07-03 17:35:00
1:55 PM,82.4,66.2,58,30.09,10.0,South,6.9,-,N/A,,Scattered Clouds,170,2013-07-03 17:55:00
2:15 PM,82.4,64.4,54,30.09,10.0,SW,8.1,-,N/A,,Scattered Clouds,220,2013-07-03 18:15:00
2:35 PM,82.4,66.2,58,30.08,10.0,SSW,8.1,-,N/A,,Mostly Cloudy,210,2013-07-03 18:35:00
2:55 PM,82.4,68.0,62,30.08,10.0,SE,5.8,-,N/A,,Scattered Clouds,130,2013-07-03 18:55:00
3:15 PM,82.4,68.0,62,30.08,10.0,SSE,8.1,-,N/A,,Clear,150,2013-07-03 19:15:00
3:35 PM,82.4,66.2,58,30.08,10.0,South,5.8,-,N/A,,Scattered Clouds,170,2013-07-03 19:35:00
3:55 PM,82.4,68.0,62,30.07,10.0,SSE,5.8,-,N/A,,Scattered Clouds,150,2013-07-03 19:55:00
4:15 PM,80.6,68.0,65,30.07,10.0,SE,6.9,-,N/A,,Scattered Clouds,140,2013-07-03 20:15:00
4:36 PM,80.6,68.0,65,30.07,10.0,SE,5.8,-,N/A,,Scattered Clouds,140,2013-07-03 20:36:00
4:56 PM,80.6,69.8,70,30.07,10.0,SE,5.8,-,N/A,,Scattered Clouds,140,2013-07-03 20:56:00
5:16 PM,80.6,69.8,70,30.07,10.0,SSE,5.8,-,N/A,,Scattered Clouds,160,2013-07-03 21:16:00
5:36 PM,80.6,69.8,70,30.06,10.0,SSE,3.5,-,N/A,,Scattered Clouds,150,2013-07-03 21:36:00
5:56 PM,80.6,69.8,70,30.06,10.0,SSE,3.5,-,N/A,,Scattered Clouds,150,2013-07-03 21:56:00
6:16 PM,80.6,69.8,70,30.06,10.0,Calm,Calm,-,N/A,,Clear,0,2013-07-03 22:16:00
6:31 PM,80.6,69.8,70,30.06,10.0,SSE,3.5,-,N/A,,Clear,150,2013-07-03 22:31:00
6:51 PM,80.6,69.8,70,30.06,10.0,Calm,Calm,-,N/A,,Clear,0,2013-07-03 22:51:00
7:11 PM,80.6,69.8,70,30.06,10.0,Calm,Calm,-,N/A,,Clear,0,2013-07-03 23:11:00
7:32 PM,78.8,71.6,78,30.06,10.0,ESE,4.6,-,N/A,,Clear,110,2013-07-03 23:32:00
7:52 PM,78.8,71.6,78,30.06,10.0,Calm,Calm,-,N/A,,Clear,0,2013-07-03 23:52:00
8:12 PM,78.8,71.6,78,30.06,10.0,Calm,Calm,-,N/A,,Clear,0,2013-07-04 00:12:00
8:32 PM,75.2,71.6,89,30.06,10.0,Calm,Calm,-,N/A,,Clear,0,2013-07-04 00:32:00
8:52 PM,75.2,69.8,83,30.06,10.0,East,3.5,-,N/A,,Clear,90,2013-07-04 00:52:00
9:12 PM,75.2,71.6,89,30.07,7.0,ESE,5.8,-,N/A,,Clear,120,2013-07-04 01:12:00
9:32 PM,75.2,71.6,89,30.07,7.0,SE,4.6,-,N/A,,Clear,130,2013-07-04 01:32:00
9:52 PM,75.2,71.6,89,30.07,10.0,SE,4.6,-,N/A,,Clear,130,2013-07-04 01:52:00
10:13 PM,75.2,69.8,83,30.08,10.0,ESE,3.5,-,N/A,,Clear,120,2013-07-04 02:13:00
10:33 PM,73.4,69.8,88,30.09,7.0,ESE,3.5,-,N/A,,Clear,120,2013-07-04 02:33:00
10:53 PM,73.4,69.8,88,30.09,7.0,SE,3.5,-,N/A,,Scattered Clouds,140,2013-07-04 02:53:00
11:13 PM,73.4,69.8,88,30.09,7.0,Calm,Calm,-,N/A,,Scattered Clouds,0,2013-07-04 03:13:00
11:33 PM,75.2,69.8,83,30.08,10.0,Calm,Calm,-,N/A,,Clear,0,2013-07-04 03:33:00
11:53 PM,73.4,69.8,88,30.09,10.0,Calm,Calm,-,N/A,,Clear,0,2013-07-04 03:53:00